Home   Weather   Everett   Past weeks

Flag for USA Past Weather in Everett, Washington, USA — Yesterday and Last 2 Weeks

Now
30 °F

Light snow. Ice fog.


Feels Like: 22 °F
Forecast: 31 / 38 °F
Wind: 9 mph from East

Location: Snohomish County Airport

Current Time: Dec 8, 2016 at 11:44:33 pm

Latest Report: Dec 8, 2016 at 10:53 pm


Visibility: 2 mi

Pressure: 29.97 "Hg

Humidity: 85%

Dew Point: 26 °F

Location of EverettLocation

Past Weather in Everett — Graph

°F

Everett Temperature Yesterday

Maximum temperature yesterday: 34 °F (at 2:53 pm)
Minimum temperature yesterday: 25 °F (at 3:53 am)
Average temperature yesterday: 29 °F

High & Low Weather Summary for the Past Weeks

 TemperatureHumidityPressure
High50 °F (Nov 25, 11:53 am)100% (Nov 26, 4:53 pm)30.44 "Hg (Nov 26, 4:53 pm)
Low25 °F (Dec 7, 3:53 am)34% (Dec 8, 1:53 pm)29.43 "Hg (Nov 26, 2:53 pm)
Average41 °F86%30.02 "Hg
* Reported Nov 23 9:53 pm — Dec 8 9:53 pm, Everett, Weather by CustomWeather, © 2016

Note: Actual official high and low records may vary slightly from our data, if they occured in-between our weather recording intervals... More about our weather records

Advertising

Everett Weather History for the Previous 24 Hours

Scroll right to see more
 ConditionsComfort  
Time TempWeatherWind HumidityBarometerVisibility
9:53 pm
Thu, Dec 8
31 °FOvercast.5 mph69%29.96 "Hg10 mi
8:53 pm34 °FMostly cloudy.5 mph52%29.96 "Hg10 mi
7:53 pm34 °FPartly cloudy.5 mph42%29.94 "Hg10 mi
6:53 pm34 °FPassing clouds.9 mph40%29.94 "Hg10 mi
5:53 pm35 °FClear.10 mph36%29.94 "Hg10 mi
4:53 pm35 °FClear.12 mph36%29.96 "Hg10 mi
3:53 pm35 °FSunny.12 mph36%29.96 "Hg10 mi
2:53 pm36 °FSunny.8 mph35%29.98 "Hg10 mi
1:53 pm37 °FSunny.12 mph34%29.98 "Hg10 mi
12:53 pm35 °FSunny.9 mph38%30.03 "Hg10 mi
11:53 am36 °FSunny.12 mph37%30.05 "Hg10 mi
10:53 am36 °FSunny.12 mph37%30.07 "Hg10 mi
9:53 am33 °FSunny.7 mph43%30.10 "Hg10 mi
8:53 am32 °FSunny.3 mph47%30.12 "Hg10 mi
7:53 am29 °FSunny.6 mph54%30.14 "Hg10 mi
6:53 am28 °FClear.5 mph58%30.14 "Hg10 mi
5:53 am30 °FClear.5 mph51%30.16 "Hg10 mi
4:53 am30 °FClear.6 mph51%30.19 "Hg10 mi
3:53 am30 °FClear.8 mph51%30.22 "Hg10 mi
2:53 am30 °FClear.5 mph51%30.24 "Hg10 mi
1:53 am27 °FClear.6 mph63%30.26 "Hg10 mi
12:53 am29 °FClear.5 mph54%30.28 "Hg10 mi
11:53 pm
Wed, Dec 7
29 °FClear.8 mph54%30.29 "Hg10 mi
Weather by CustomWeather, © 2016

See weather overviewHow to use our weather pages